Location: Rimini
(44.0630°N, 12.5810°E)
Time: 10:19:27
(UTC+01:00)

ISS - Visible Passes

Search period start: 17 January 2019 00:00
Search period end: 27 January 2019 00:00
Orbit: 404 x 407 km, 51.6° (Epoch: 17 January)

Date Brightness Start Highest point End Pass type
(mag) Time Alt. Az. Time Alt. Az. Time Alt. Az.
21 Jan -1.8 18:42:45 10° S 18:44:18 17° SSE 18:44:18 17° SSE visible
22 Jan -1.4 17:53:00 10° SE 17:53:24 10° SE 17:53:49 10° ESE visible
22 Jan -1.7 19:26:05 10° SW 19:27:34 24° SW 19:27:34 24° SW visible
23 Jan -3.3 18:34:21 10° SSW 18:37:28 41° SE 18:38:01 37° ESE visible
24 Jan -2.3 17:42:58 10° S 17:45:37 23° SE 17:48:18 10° E visible
24 Jan -2.5 19:18:42 10° WSW 19:21:05 39° WNW 19:21:05 39° WNW visible
25 Jan -3.9 18:26:38 10° WSW 18:29:54 87° NW 18:31:23 30° ENE visible
25 Jan -0.3 20:03:56 10° WNW 20:04:04 11° WNW 20:04:04 11° WNW visible
26 Jan -2.4 19:11:34 10° W 19:14:18 31° NNW 19:14:18 31° NNW visible
